Location: Tucson
(32.2217°N, 110.9265°W)
Time: 05:38:31
(UTC-07:00)

Explorer 7 - All Passes

Search period start: 25 October 2021 00:00
Search period end: 04 November 2021 00:00
Orbit: 484 x 676 km, 50.3° (Epoch: 24 October)

Date Brightness Start Highest point End Pass type
(mag) Time Alt. Az. Time Alt. Az. Time Alt. Az.
25 Oct - 01:19:19 10° N 01:20:03 10° NNE 01:20:48 10° NNE night (unlit)
25 Oct - 02:57:24 10° NNW 03:01:40 35° NE 03:06:03 10° ESE visible
25 Oct - 04:37:52 10° WNW 04:42:12 36° SW 04:46:38 10° SSE visible
25 Oct - 18:36:18 10° SSE 18:38:37 16° SE 18:40:59 10° E visible
25 Oct - 20:14:55 10° WSW 20:18:40 49° NW 20:22:40 10° NE visible
25 Oct - 21:58:38 10° NW 22:00:02 11° NNW 22:01:25 10° N night (unlit)
26 Oct - 01:22:22 10° N 01:24:37 13° NNE 01:26:54 10° NE night (unlit)
26 Oct - 03:01:23 10° NW 03:05:55 54° NE 03:10:39 10° ESE visible
26 Oct - 04:42:38 10° W 04:46:13 21° SW 04:49:52 10° S visible
26 Oct - 18:39:18 10° S 18:42:35 28° SE 18:46:01 10° ENE visible
26 Oct - 20:19:30 10° W 20:22:58 30° NW 20:26:35 10° NNE visible
27 Oct - 01:25:59 10° NNW 01:29:05 18° NNE 01:32:19 10° ENE night (unlit)
27 Oct - 03:05:27 10° NW 03:10:06 88° NE 03:14:56 10° SE night (unlit)
27 Oct - 04:48:20 10° WSW 04:50:11 12° SW 04:52:03 10° SSW visible
27 Oct - 18:42:55 10° SSW 18:46:37 54° SE 18:50:30 10° NE visible
27 Oct - 20:24:25 10° WNW 20:27:20 20° NNW 20:30:22 10° NNE visible
28 Oct - 01:29:44 10° NNW 01:33:29 25° NNE 01:37:24 10° E night (unlit)
28 Oct - 03:09:41 10° WNW 03:14:13 54° SW 03:18:55 10° SSE night (unlit)
28 Oct - 18:46:57 10° SW 18:50:44 79° NW 18:54:43 10° NE visible
28 Oct - 20:29:41 10° WNW 20:31:47 14° NNW 20:33:56 10° N visible
28 Oct - 23:55:38 10° N 23:56:18 10° NNE 23:56:59 10° NNE night (unlit)
29 Oct - 01:33:36 10° NNW 01:37:48 37° NE 01:42:11 10° ESE night (unlit)
29 Oct - 03:14:10 10° WNW 03:18:16 32° SW 03:22:31 10° SSE night (unlit)
29 Oct - 17:12:18 10° S 17:14:49 17° SE 17:17:23 10° E daylight
29 Oct - 18:51:19 10° WSW 18:54:56 43° NW 18:58:44 10° NE visible
29 Oct - 20:36:06 10° NNW 20:36:19 10° NNW 20:36:32 10° NNW visible
29 Oct - 23:58:36 10° N 00:00:50 14° NNE 00:03:07 10° NE night (unlit)
30 Oct - 01:37:34 10° NW 01:42:01 59° NE 01:46:42 10° ESE night (unlit)
30 Oct - 03:19:03 10° W 03:22:16 19° SW 03:25:34 10° S night (unlit)
30 Oct - 17:15:26 10° SSW 17:18:48 32° SE 17:22:15 10° ENE daylight
30 Oct - 18:55:59 10° W 18:59:14 26° NNW 19:02:37 10° NNE visible
31 Oct - 00:02:10 10° NNW 00:05:17 19° NNE 00:08:30 10° ENE night (unlit)
31 Oct - 01:41:40 10° NW 01:46:10 83° SW 01:50:55 10° SE night (unlit)
31 Oct - 03:25:43 10° WSW 03:26:13 10° SW 03:26:45 10° SW night (unlit)
31 Oct - 17:19:09 10° SW 17:22:50 63° SE 17:26:40 10° NE daylight
31 Oct - 19:00:57 10° WNW 19:03:36 17° NNW 19:06:19 10° NNE visible
01 Nov - 00:05:55 10° NNW 00:09:38 26° NNE 00:13:31 10° E night (unlit)
01 Nov - 01:45:56 10° WNW 01:50:17 48° SW 01:54:49 10° SSE night (unlit)
01 Nov - 15:46:47 10° SE 15:47:03 10° SE 15:47:19 10° ESE daylight
01 Nov - 17:23:15 10° SW 17:26:58 68° NW 17:30:49 10° NE daylight
01 Nov - 19:06:24 10° NW 19:08:03 12° NNW 19:09:43 10° N visible
01 Nov - 22:31:57 10° NNE 22:32:31 10° NNE 22:33:05 10° NNE night (unlit)
02 Nov - 00:09:47 10° NNW 00:13:55 40° NE 00:18:15 10° ESE night (unlit)
02 Nov - 01:50:29 10° WNW 01:54:19 27° SW 01:58:18 10° S night (unlit)
02 Nov - 15:48:16 10° S 15:50:59 19° SE 15:53:45 10° E daylight
02 Nov - 17:27:40 10° WSW 17:31:10 37° NW 17:34:47 10° NNE daylight
02 Nov - 22:34:48 10° N 22:37:01 14° NNE 22:39:17 10° ENE night (unlit)
03 Nov - 00:13:46 10° NW 00:18:06 66° NE 00:22:42 10° SE night (unlit)
03 Nov - 01:55:32 10° W 01:58:18 16° SW 02:01:08 10° SSW night (unlit)
03 Nov - 15:51:33 10° SSW 15:54:58 36° SE 15:58:28 10° ENE daylight
03 Nov - 17:32:23 10° W 17:35:27 23° NNW 17:38:36 10° NNE daylight
03 Nov - 22:38:21 10° NNW 22:41:26 19° NNE 22:44:37 10° ENE night (unlit)
